Regional Weather Roundup
Issued by NWS

Home | Current Version | Previous Version | Graphics & Text | Print | Product List | Glossary On
Versions: 1 2 3 4 5 6 7 8 9 10 11 12 13 14 15 16 17 18 19 20 21 22 23 24 25 26 27 28 29 30 31 32 33 34 35 36 37 38 39 40 41 42 43 44 45 46 47 48 49 50
856
ASUS43 KIND 270609
RWRIN

WEATHER ROUNDUP FOR INDIANA
NATIONAL WEATHER SERVICE INDIANAPOLIS IN
200 AM EDT TUE SEP 27 2016

NOTE: "FAIR" INDICATES FEW OR NO CLOUDS BELOW 12,000 FEET WITH NO
SIGNIFICANT WEATHER AND/OR OBSTRUCTIONS TO VISIBILITY.

* - STATION DOES NOT REPORT WEATHER SUCH AS PRECIPITATION OR FOG.

+ - STATION NOT QUALITY CONTROLLED BY THE NATIONAL WEATHER SERVICE.
    USE DATA WITH CAUTION...ESPECIALLY DEWPOINT AND RELATIVE
    HUMIDITY OBSERVATIONS.

INZ001>003-010>013-019-020-270700-
NORTHWEST INDIANA

CITY           SKY/WX    TMP DP  RH WIND       PRES   REMARKS
GARY /AIRPORT/ CLEAR     58  38  49 SW6       29.92F
KNOX *+        CLEAR     50  21  32 SW7       29.93F
LA PORTE +     CLEAR     52  40  64 SW8       29.92F
6HR MIN TEMP:  51; 6HR MAX TEMP:  62;

MICHIGAN CITY+ CLEAR     54  37  54 MISG      29.91F
MONTICELLO +   CLEAR     51  37  58 SW8       29.97F
6HR MIN TEMP:  50; 6HR MAX TEMP:  64;

RENSSELAER +   CLEAR     48  43  81 SW5       29.96S
VALPARAISO     CLEAR     51  40  65 SW6       29.93F
6HR MIN TEMP:  50; 6HR MAX TEMP:  60;


$$

LMZ046-743>745-270700-
SOUTHERN LAKE MICHIGAN

STATION/POSITION TIME  TEMP    WIND        PRES    WAVE
                       AIR SEA DIR/SP/G            HT
                 (UTC) (F)     (DEG/KT/KT) (MB)    (FT)
BURNS HARBOR     0500   62     220/ 12/ 19 1013.9F
MICHIGAN CITY    0500   59     190/ 14/ 15   N/A
5NW MICH CITY    0600   64 67  250/ 17/ 23   N/A     5

$$

INZ004-005-014>016-021>024-270700-
NORTH CENTRAL INDIANA

CITY           SKY/WX    TMP DP  RH WIND       PRES   REMARKS
GOSHEN         CLEAR     50  39  66 SW12      29.91F
6HR MIN TEMP:  49; 6HR MAX TEMP:  59;

LOGANSPORT +   CLEAR     50  41  71 SW8       29.97F
PERU/GRISSOM   CLEAR     50  40  70 SW9       29.96F
6HR MIN TEMP:  49; 6HR MAX TEMP:  61;

ROCHESTER +    CLEAR     54  41  62 SW6       29.95F
SOUTH BEND     CLEAR     51  39  63 SW9       29.91F
6HR MIN TEMP:  51; 6HR MAX TEMP:  57;

WARSAW +       CLEAR     54  32  43 SW3       29.94S

$$

INZ006>009-017-018-025>027-270700-
NORTHEAST INDIANA

CITY           SKY/WX    TMP DP  RH WIND       PRES   REMARKS
ANGOLA *+        N/A     50  39  66 CALM      29.91F
AUBURN +       PTCLDY    54  36  50 SW7       29.94F
FORT WAYNE     CLEAR     49  41  74 SW9       29.95F
6HR MIN TEMP:  49; 6HR MAX TEMP:  61;

HUNTINGTON +   CLEAR     52  40  62 SW6       29.96F
6HR MIN TEMP:  52; 6HR MAX TEMP:  62;

KENDALLVILLE + CLEAR     51  40  65 SW9       29.92F

$$

INZ028-029-035-036-043>045-051>053-270700-
WEST CENTRAL INDIANA

CITY           SKY/WX    TMP DP  RH WIND       PRES   REMARKS
CRAWFORDSVL +  CLEAR     48  42  79 SW5       30.01F
6HR MIN TEMP:  48; 6HR MAX TEMP:  59;

GREENCASTLE +  CLEAR     46  46 100 S3        30.03F
LAFAYETTE      CLEAR     47  45  93 W3        29.99F
6HR MIN TEMP:  47; 6HR MAX TEMP:  62;

TERRE HAUTE    CLEAR     49  43  80 SW5       30.04F
6HR MIN TEMP:  48; 6HR MAX TEMP:  64;


$$

INZ030>032-037>040-046>048-054>057-064-065-270700-
CENTRAL INDIANA

CITY           SKY/WX    TMP DP  RH WIND       PRES   REMARKS
FISHERS *+     CLEAR     50  45  81 SW5       30.01
FRANKFORT +    CLEAR     53  42  65 SW6       30.01F
GREENWOOD *+   CLEAR     54  45  71 SW3       30.03F
INDIANAPOLIS   CLEAR     50  44  80 SW7       30.02F
6HR MIN TEMP:  50; 6HR MAX TEMP:  61;

-EAGLE CREEK   CLEAR     57  40  52 W6        30.01F
6HR MIN TEMP:  56; 6HR MAX TEMP:  65;

MARION +       CLEAR     49  40  71 SW5       29.99F
MT COMFORT *+  CLEAR     52  43  71 SW7       30.02F
SHELBYVILLE    CLEAR     52  47  83 SW5       30.02F
6HR MIN TEMP:  51; 6HR MAX TEMP:  61;

ZIONSVILLE +   CLEAR     50  41  70 SW7       30.02F
6HR MIN TEMP:  48; 6HR MAX TEMP:  58;


$$

INZ033-034-041-042-049-050-058-059-270700-
EAST CENTRAL INDIANA

CITY           SKY/WX    TMP DP  RH WIND       PRES   REMARKS
MUNCIE         CLEAR     56  42  59 SW8       30.00F
6HR MIN TEMP:  56; 6HR MAX TEMP:  64;


$$

INZ060-061-067>069-081>083-085>088-270700-
SOUTHWEST INDIANA

CITY           SKY/WX    TMP DP  RH WIND       PRES   REMARKS
EVANSVILLE     CLEAR     54  49  83 W5        30.08F
6HR MIN TEMP:  52; 6HR MAX TEMP:  65;

HUNTINGBURG *+   N/A     52  46  82 CALM      30.07F
6HR MIN TEMP:  52; 6HR MAX TEMP:  63;

WASHINGTON +   CLEAR     55  47  76 MISG      30.05F
6HR MIN TEMP:  54; 6HR MAX TEMP:  58; 6HR PCP:  0.06;


$$

INZ062-063-066-070>080-084-089>092-270700-
SOUTH CENTRAL AND SOUTHEAST INDIANA

CITY           SKY/WX    TMP DP  RH WIND       PRES   REMARKS
BLOOMINGTON    CLEAR     53  44  71 CALM      30.04F
6HR MIN TEMP:  51; 6HR MAX TEMP:  59;

MADISON *+     CLEAR     50  48  93 CALM      30.07S
NORTH VERNON + CLEAR    N/A N/A N/A CALM      30.05F
SEYMOUR +      CLEAR     50  48  93 CALM      30.04

$$





USA.gov is the U.S. government's official web portal to all federal, state and local government web resources and services.